DW5891 Weather Reports


Display with metric or nautical units.
time (UTC)temp
F
wind
direction
speed
MPH
gust
MPH
rain 1hr
in
rain 24hr
in
rain mn
in
humidity
%
barometer
mb
20240624072019 74 204 23.0 0.0 0.00 0.00 0.06 73 991.0
20240624071017 76 185 12.0 0.0 0.00 0.00 0.00 73 989.8
20240624070516 75 195 9.0 0.0 0.00 0.00 0.00 75 989.6
20240624070017 75 192 7.0 0.0 0.00 0.00 0.00 76 989.5
20240624065514 75 186 7.0 0.0 0.00 0.00 0.00 74 989.4
20240624065015 75 236 10.0 0.0 0.00 0.00 0.00 74 989.4
20240624064514 75 212 9.0 0.0 0.00 0.00 0.00 74 990.1
20240624064018 76 211 9.0 0.0 0.00 0.00 0.00 72 989.6
20240624063511 78 223 13.0 0.0 0.00 0.00 0.00 69 989.5
20240624063016 77 204 12.0 0.0 0.00 0.00 0.00 69 989.3
20240624062512 78 177 11.0 0.0 0.00 0.00 0.00 68 988.4
20240624062008 78 153 13.0 0.0 0.00 0.00 0.00 68 988.0
20240624061507 78 144 14.0 0.0 0.00 0.00 0.00 68 987.6
20240624061007 78 157 14.0 0.0 0.00 0.00 0.00 68 987.6
20240624060508 78 150 13.0 0.0 0.00 0.00 0.00 69 987.7
20240624060015 77 134 12.0 0.0 0.00 0.00 0.00 69 988.0
20240624055502 77 145 10.0 0.0 0.00 0.00 0.00 70 988.4
20240624055002 77 140 10.0 0.0 0.00 0.00 0.00 70 988.5
20240624054620 77 189 10.0 0.0 0.00 0.00 0.00 71 988.6
20240624054100 77 144 10.0 0.0 0.00 0.00 0.00 71 988.8
20240624053559 77 136 10.0 0.0 0.00 0.00 0.00 71 988.9
20240624053102 77 139 10.0 0.0 0.00 0.00 0.00 71 989.0
20240624052559 77 150 10.0 0.0 0.00 0.00 0.00 72 988.9
20240624052059 77 132 9.0 0.0 0.00 0.00 0.00 72 989.0
20240624051559 77 138 9.0 0.0 0.00 0.00 0.00 72 989.0
20240624051059 77 147 9.0 0.0 0.00 0.00 0.00 73 989.0
20240624050558 77 144 8.0 0.0 0.00 0.00 0.00 73 989.1
20240624050105 77 135 8.0 0.0 0.00 0.00 0.00 73 989.1
20240624045558 77 136 9.0 0.0 0.00 0.00 0.00 73 989.1
20240624045057 77 137 11.0 0.0 0.00 0.00 0.00 72 989.2
20240624044614 77 125 12.0 0.0 0.00 0.00 0.00 72 989.2
20240624044057 77 126 12.0 0.0 0.00 0.00 0.00 72 989.2
20240624043557 76 121 11.0 0.0 0.00 0.00 0.00 74 989.2
20240624043056 76 131 10.0 0.0 0.00 0.00 0.00 75 989.3
20240624042559 76 136 10.0 0.0 0.00 0.00 0.00 75 989.2
20240624042055 76 131 9.0 0.0 0.00 0.00 0.00 74 989.3
20240624041605 76 136 9.0 0.0 0.00 0.00 0.00 74 989.4
20240624041057 76 119 10.0 0.0 0.00 0.00 0.00 74 989.5
20240624040555 76 130 10.0 0.0 0.00 0.00 0.00 74 989.5
20240624040136 77 95 9.0 0.0 0.00 0.00 0.00 73 989.5
20240624035555 77 107 10.0 0.0 0.00 0.00 0.00 73 989.5
20240624035054 77 108 11.0 0.0 0.00 0.00 0.00 72 989.4
20240624034604 78 127 10.0 0.0 0.00 0.00 0.00 72 989.4
20240624034054 78 101 9.0 0.0 0.00 0.00 0.00 72 989.4
20240624033555 78 122 9.0 0.0 0.00 0.00 0.00 71 989.4
20240624033053 78 126 9.0 0.0 0.00 0.00 0.00 70 989.3
20240624032553 78 126 9.0 0.0 0.00 0.00 0.00 70 989.4
20240624032053 79 131 9.0 0.0 0.00 0.00 0.00 69 989.2
20240624031553 79 123 10.0 0.0 0.00 0.00 0.00 69 989.1
20240624031052 79 110 11.0 0.0 0.00 0.00 0.00 68 989.1
20240624030553 80 131 13.0 0.0 0.00 0.00 0.00 67 989.1
20240624030054 80 117 11.0 0.0 0.00 0.00 0.00 67 989.1
20240624025553 80 109 11.0 0.0 0.00 0.00 0.00 66 989.0
20240624025052 81 117 11.0 0.0 0.00 0.00 0.00 66 989.2
20240624024552 81 119 10.0 0.0 0.00 0.00 0.00 65 989.1
20240624024050 81 139 10.0 0.0 0.00 0.00 0.00 65 989.2
20240624023553 81 121 11.0 0.0 0.00 0.00 0.00 65 989.3
20240624023051 82 118 11.0 0.0 0.00 0.00 0.00 64 989.3
20240624022549 82 115 11.0 0.0 0.00 0.00 0.00 63 989.3
20240624022048 82 103 11.0 0.0 0.00 0.00 0.00 63 989.4
20240624021556 82 126 11.0 0.0 0.00 0.00 0.00 62 989.4
20240624021047 83 119 11.0 0.0 0.00 0.00 0.00 62 989.5
20240624020548 83 109 11.0 0.0 0.00 0.00 0.00 62 989.5
20240624020047 83 107 13.0 0.0 0.00 0.00 0.00 61 989.5
20240624015547 84 115 12.0 0.0 0.00 0.00 0.00 61 989.5
20240624015046 84 117 11.0 0.0 0.00 0.00 0.00 60 989.7
20240624014545 84 113 12.0 0.0 0.00 0.00 0.00 60 989.8
20240624014045 84 140 12.0 0.0 0.00 0.00 0.00 59 989.7
20240624013544 84 115 11.0 0.0 0.00 0.00 0.00 59 989.8
20240624013043 85 118 10.0 0.0 0.00 0.00 0.00 59 989.8
20240624012543 84 119 10.0 0.0 0.00 0.00 0.00 59 990.0
20240624012043 85 123 10.0 0.0 0.00 0.00 0.00 58 990.0
20240624011544 85 114 10.0 0.0 0.00 0.00 0.00 58 990.1
20240624011041 85 121 11.0 0.0 0.00 0.00 0.00 58 990.2
20240624010541 85 108 10.0 0.0 0.00 0.00 0.00 58 990.3
20240624010041 85 111 10.0 0.0 0.00 0.00 0.00 58 990.3
20240624005540 85 113 10.0 0.0 0.00 0.00 0.00 58 990.5
20240624005039 85 112 10.0 0.0 0.00 0.00 0.00 57 990.5
20240624004539 85 118 11.0 0.0 0.00 0.00 0.00 57 990.6
20240624004041 86 116 12.0 0.0 0.00 0.00 0.00 56 990.7
20240624003536 86 117 12.0 0.0 0.00 0.00 0.00 55 990.8
20240624003044 86 122 12.0 0.0 0.00 0.00 0.00 55 990.9
20240624002535 86 134 13.0 0.0 0.00 0.00 0.00 54 991.0
20240624002036 87 119 13.0 0.0 0.00 0.00 0.00 52 991.1
20240624001535 88 123 12.0 0.0 0.00 0.00 0.00 51 991.2
20240624001034 88 114 13.0 0.0 0.00 0.00 0.00 51 991.3
20240624000533 88 134 15.0 0.0 0.00 0.00 0.00 50 991.4
20240624000037 88 127 15.0 0.0 0.00 0.00 0.00 49 991.5
20240623235532 88 118 15.0 0.0 0.00 0.00 0.00 51 991.6
20240623235033 88 124 15.0 0.0 0.00 0.00 0.00 49 991.6
20240623234533 88 117 14.0 0.0 0.00 0.00 0.00 49 991.7
20240623234029 88 130 14.0 0.0 0.00 0.00 0.00 48 991.7
20240623233532 88 140 14.0 0.0 0.00 0.00 0.00 49 991.7
20240623233029 89 115 15.0 0.0 0.00 0.00 0.00 48 991.9
20240623232529 89 136 15.0 0.0 0.00 0.00 0.00 47 991.9
20240623232027 89 145 16.0 0.0 0.00 0.00 0.00 47 992.0
20240623231527 88 137 15.0 0.0 0.00 0.00 0.00 47 992.1
20240623231027 89 122 15.0 0.0 0.00 0.00 0.00 46 992.2
20240623230526 89 130 16.0 0.0 0.00 0.00 0.00 47 992.3
20240623230026 88 147 16.0 0.0 0.00 0.00 0.00 45 992.3
20240623225524 88 126 16.0 0.0 0.00 0.00 0.00 44 992.4
20240623225024 88 153 15.0 0.0 0.00 0.00 0.00 43 992.5
20240623224540 89 115 15.0 0.0 0.00 0.00 0.00 43 992.7
20240623224022 89 136 15.0 0.0 0.00 0.00 0.00 42 992.8
20240623223522 89 146 15.0 0.0 0.00 0.00 0.00 42 992.8
20240623223021 89 124 14.0 0.0 0.00 0.00 0.00 41 992.9
20240623222520 89 139 13.0 0.0 0.00 0.00 0.00 42 993.0
20240623222021 88 123 14.0 0.0 0.00 0.00 0.00 43 993.0
20240623221527 88 135 15.0 0.0 0.00 0.00 0.00 42 993.1
20240623221018 88 126 15.0 0.0 0.00 0.00 0.00 41 993.2
20240623220517 88 113 16.0 0.0 0.00 0.00 0.00 42 993.4
20240623220016 88 128 16.0 0.0 0.00 0.00 0.00 40 993.4
20240623215516 88 108 14.0 0.0 0.00 0.00 0.00 41 993.5
20240623215015 88 121 14.0 0.0 0.00 0.00 0.00 41 993.6
20240623214515 88 134 15.0 0.0 0.00 0.00 0.00 41 993.7
20240623214014 88 115 15.0 0.0 0.00 0.00 0.00 41 993.7
20240623213516 88 126 16.0 0.0 0.00 0.00 0.00 40 993.8
20240623213012 87 146 16.0 0.0 0.00 0.00 0.00 41 993.8
20240623212515 87 157 16.0 0.0 0.00 0.00 0.00 40 993.9
20240623212015 87 126 15.0 0.0 0.00 0.00 0.00 39 994.0
20240623211515 87 117 15.0 0.0 0.00 0.00 0.00 42 994.0
20240623211010 87 124 15.0 0.0 0.00 0.00 0.00 39 994.1
20240623210510 87 134 15.0 0.0 0.00 0.00 0.00 40 994.2
20240623210010 87 143 15.0 0.0 0.00 0.00 0.00 40 994.2
20240623205508 87 148 15.0 0.0 0.00 0.00 0.00 40 994.3
20240623205107 87 149 15.0 0.0 0.00 0.00 0.00 39 994.3
20240623204506 87 126 15.0 0.0 0.00 0.00 0.00 40 994.4
20240623204004 86 119 14.0 0.0 0.00 0.00 0.00 39 994.7
20240623203504 86 115 14.0 0.0 0.00 0.00 0.00 39 994.8
20240623203004 86 121 16.0 0.0 0.00 0.00 0.00 38 994.8
20240623202504 86 119 15.0 0.0 0.00 0.00 0.00 39 994.9
20240623202001 86 129 14.0 0.0 0.00 0.00 0.00 37 995.0
20240623201601 86 110 13.0 0.0 0.00 0.00 0.00 38 995.2
20240623201059 86 111 12.0 0.0 0.00 0.00 0.00 37 995.2
20240623200559 86 112 12.0 0.0 0.00 0.00 0.00 38 995.3
20240623200058 86 126 14.0 0.0 0.00 0.00 0.00 38 995.5
20240623195558 85 149 14.0 0.0 0.00 0.00 0.00 36 995.5
20240623195056 85 131 12.0 0.0 0.00 0.00 0.00 36 995.6
20240623194604 85 125 13.0 0.0 0.00 0.00 0.00 35 995.7
20240623194057 85 109 13.0 0.0 0.00 0.00 0.00 34 995.8
20240623193553 85 150 13.0 0.0 0.00 0.00 0.00 36 995.8
20240623193052 85 113 13.0 0.0 0.00 0.00 0.00 35 996.0
20240623192551 85 136 13.0 0.0 0.00 0.00 0.00 37 996.0
20240623192051 84 141 14.0 0.0 0.00 0.00 0.00 37 996.1
20240623191551 84 140 13.0 0.0 0.00 0.00 0.00 36 996.2
20240623191048 84 138 13.0 0.0 0.00 0.00 0.00 36 996.2
20240623190547 84 144 13.0 0.0 0.00 0.00 0.00 36 996.4
20240623190051 84 158 12.0 0.0 0.00 0.00 0.00 36 996.5
20240623185547 84 123 11.0 0.0 0.00 0.00 0.00 36 996.7
20240623185047 84 130 11.0 0.0 0.00 0.00 0.00 34 996.9
20240623184605 84 134 11.0 0.0 0.00 0.00 0.00 35 997.0
20240623184043 83 131 11.0 0.0 0.00 0.00 0.00 35 997.1
20240623183543 83 114 10.0 0.0 0.00 0.00 0.00 37 997.2
20240623183042 83 134 9.0 0.0 0.00 0.00 0.00 33 997.3
20240623182541 83 144 9.0 0.0 0.00 0.00 0.00 36 997.4
20240623182041 83 157 9.0 0.0 0.00 0.00 0.00 37 997.4
20240623181544 83 108 9.0 0.0 0.00 0.00 0.00 37 997.4
20240623181040 83 103 10.0 0.0 0.00 0.00 0.00 36 997.5
20240623180539 83 105 9.0 0.0 0.00 0.00 0.00 38 997.5
20240623180038 83 103 8.0 0.0 0.00 0.00 0.00 38 997.7
20240623175537 83 86 10.0 0.0 0.00 0.00 0.00 41 997.6
20240623175037 82 102 9.0 0.0 0.00 0.00 0.00 38 997.6
20240623174539 82 142 9.0 0.0 0.00 0.00 0.00 40 997.6
20240623174035 82 145 10.0 0.0 0.00 0.00 0.00 39 997.8
20240623173534 82 94 10.0 0.0 0.00 0.00 0.00 41 997.7
20240623173038 82 127 11.0 0.0 0.00 0.00 0.00 39 997.8
20240623172533 82 107 10.0 0.0 0.00 0.00 0.00 38 997.8
20240623172032 81 132 9.0 0.0 0.00 0.00 0.00 40 997.8
20240623171532 81 107 9.0 0.0 0.00 0.00 0.00 38 997.9
20240623171031 81 128 10.0 0.0 0.00 0.00 0.00 41 998.0
20240623170529 81 86 9.0 0.0 0.00 0.00 0.00 40 998.1
20240623170029 81 110 8.0 0.0 0.00 0.00 0.00 40 998.2
20240623165528 81 100 10.0 0.0 0.00 0.00 0.00 41 998.2
20240623165030 81 82 10.0 0.0 0.00 0.00 0.00 46 998.1
20240623164526 80 88 9.0 0.0 0.00 0.00 0.00 42 998.1
20240623164026 80 129 8.0 0.0 0.00 0.00 0.00 42 998.2
20240623163524 80 78 8.0 0.0 0.00 0.00 0.00 43 998.3
20240623163024 80 126 8.0 0.0 0.00 0.00 0.00 44 998.4
20240623162524 80 125 9.0 0.0 0.00 0.00 0.00 46 998.4
20240623162022 79 118 10.0 0.0 0.00 0.00 0.00 45 998.4
20240623161535 79 124 9.0 0.0 0.00 0.00 0.00 47 998.4
20240623161022 79 121 9.0 0.0 0.00 0.00 0.00 46 998.4
20240623160520 79 134 9.0 0.0 0.00 0.00 0.00 47 998.5
20240623160019 79 126 9.0 0.0 0.00 0.00 0.00 45 998.5
20240623155520 78 123 8.0 0.0 0.00 0.00 0.00 44 998.6
20240623155018 78 128 8.0 0.0 0.00 0.00 0.00 47 998.6
20240623154517 78 157 9.0 0.0 0.00 0.00 0.00 48 998.6
20240623154015 77 152 9.0 0.0 0.00 0.00 0.00 50 998.6
20240623153514 77 130 9.0 0.0 0.00 0.00 0.00 50 998.7
20240623153017 77 140 9.0 0.0 0.00 0.00 0.00 50 998.7
20240623152517 77 135 9.0 0.0 0.00 0.00 0.00 51 998.8
20240623152013 76 136 10.0 0.0 0.00 0.00 0.00 52 998.9
20240623151514 76 153 9.0 0.0 0.00 0.00 0.00 54 998.8
20240623151009 75 135 9.0 0.0 0.00 0.00 0.00 58 998.9
20240623150511 75 148 8.0 0.0 0.00 0.00 0.00 56 998.8
20240623150009 75 132 9.0 0.0 0.00 0.00 0.00 58 999.0
20240623145507 75 138 10.0 0.0 0.00 0.00 0.00 57 999.1
20240623145008 74 140 10.0 0.0 0.00 0.00 0.00 58 999.1
20240623144505 74 138 10.0 0.0 0.00 0.00 0.00 57 999.2
20240623144003 74 129 9.0 0.0 0.00 0.00 0.00 59 999.2
20240623143502 73 118 9.0 0.0 0.00 0.00 0.00 63 999.3
20240623143101 73 153 9.0 0.0 0.00 0.00 0.00 63 999.4
20240623142600 72 133 9.0 0.0 0.00 0.00 0.00 64 999.4
20240623142058 72 132 9.0 0.0 0.00 0.00 0.00 64 999.5
20240623141559 72 133 8.0 0.0 0.00 0.00 0.00 67 999.6
20240623141055 71 153 8.0 0.0 0.00 0.00 0.00 67 999.6
20240623140554 71 152 7.0 0.0 0.00 0.00 0.00 67 999.7
20240623140055 71 162 7.0 0.0 0.00 0.00 0.00 68 999.8
20240623135553 70 152 7.0 0.0 0.00 0.00 0.00 69 999.7
20240623135051 70 159 7.0 0.0 0.00 0.00 0.00 72 999.7
20240623134550 69 167 7.0 0.0 0.00 0.00 0.00 72 999.8
20240623134048 69 182 7.0 0.0 0.00 0.00 0.00 73 999.8
20240623133547 68 160 6.0 0.0 0.00 0.00 0.00 72 999.9
20240623133045 68 159 5.0 0.0 0.00 0.00 0.00 74 999.9
20240623132545 67 154 4.0 0.0 0.00 0.00 0.00 74 999.9
20240623132047 67 153 2.0 0.0 0.00 0.00 0.00 75 999.9
20240623131602 67 191 1.0 0.0 0.00 0.00 0.00 76 999.9
20240623131041 66 175 1.0 0.0 0.00 0.00 0.00 77 999.9
20240623130542 65 177 1.0 0.0 0.00 0.00 0.00 78 999.9
20240623130038 64 178 1.0 0.0 0.00 0.00 0.00 80 999.9
20240623125537 63 315 0.0 0.0 0.00 0.00 0.00 81 999.8
20240623125035 62 315 1.0 0.0 0.00 0.00 0.00 84 999.8
20240623124535 61 315 2.0 0.0 0.00 0.00 0.00 82 999.8
20240623124033 61 317 2.0 0.0 0.00 0.00 0.00 82 999.8
20240623123534 61 322 1.0 0.0 0.00 0.00 0.00 82 999.9
20240623123046 60 163 0.0 0.0 0.00 0.00 0.00 83 999.9
20240623122530 59 340 0.0 0.0 0.00 0.00 0.00 84 1000.0
20240623122030 59 336 0.0 0.0 0.00 0.00 0.00 85 1000.0
20240623121537 58 146 0.0 0.0 0.00 0.00 0.00 87 1000.0
20240623121030 57 144 0.0 0.0 0.00 0.00 0.00 87 1000.0
20240623120530 57 54 1.0 0.0 0.00 0.00 0.00 87 1000.0
20240623120034 56 54 1.0 0.0 0.00 0.00 0.00 88 1000.0
20240623115530 56 121 1.0 0.0 0.00 0.00 0.00 89 1000.0
20240623115029 55 169 1.0 0.0 0.00 0.00 0.00 90 1000.0
20240623114529 54 173 0.0 0.0 0.00 0.00 0.00 90 1000.0
20240623114028 54 176 0.0 0.0 0.00 0.00 0.00 90 1000.0
20240623113528 53 176 0.0 0.0 0.00 0.00 0.00 90 1000.0
20240623113044 53 176 1.0 0.0 0.00 0.00 0.00 90 1000.0
20240623112528 53 176 2.0 0.0 0.00 0.00 0.00 90 1000.0
20240623112026 52 176 3.0 0.0 0.00 0.00 0.00 90 1000.0
20240623111526 52 161 2.0 0.0 0.00 0.00 0.00 88 1000.1
20240623111024 53 165 1.0 0.0 0.00 0.00 0.00 87 1000.1
20240623110524 53 164 0.0 0.0 0.00 0.00 0.00 88 1000.1
20240623110023 53 165 0.0 0.0 0.00 0.00 0.00 87 1000.2